Date String (YYYY-MM-DD hh:mm:ss) UTC,Instrument flags,absolute air pressure of the measurement (hPa),sample flow rate (lpm),inlet stack bypass flow (lpm),air temperature of the measurement (°C),ambient temperature measured by the external sensor (°C),aerosol sample conditioner tube jacket temperature (°C),OPC LED temperature (°C),internal box temperature (°C),relative humidity of the measurement (%),span deviation,mass concentration of particles derived from Lorenz-Mie calculation of OPC scattering (μg/m³),mass concentration of particles derived from Lorenz-Mie calculation of OPC scattering (μg/m³),mass concentration of particles derived from Lorenz-Mie calculation of OPC scattering (μg/m³)
DateTimeUTC,F1_M11,P_M11,Q1_M11,Q2_M11,T1_M11,T2_M11,T3_M11,T4_M11,T5_M11,U1_M11,ZSPAN_M11,X0_M11,X2_M11,X1_M11
2024-04-01 21:00:00,SystemResetWarning,0821.1,5.00,000.00,021.6,021.0,000.0,030.0,023.4,18.8,0000.0,0001.46,0000.90,0000.68
2024-04-01 21:01:00,SystemResetWarning,0821.1,4.99,000.00,021.6,021.0,000.0,030.1,023.4,18.7,0000.0,0001.31,0000.88,0000.69
2024-04-01 21:02:00,SystemResetWarning,0821.0,4.99,000.00,021.6,021.0,000.0,030.1,023.5,18.7,0000.0,0001.16,0000.84,0000.68
2024-04-01 21:03:00,SystemResetWarning,0821.0,5.01,000.00,021.6,021.0,000.0,030.1,023.5,18.8,0000.0,0001.18,0000.85,0000.69
2024-04-01 21:04:00,SystemResetWarning,0821.1,5.01,000.00,021.6,021.0,000.0,030.1,023.4,18.7,0000.0,0001.21,0000.87,0000.70
2024-04-01 21:05:00,SystemResetWarning,0821.1,5.00,000.00,021.6,021.0,000.0,030.1,023.4,18.9,0000.0,0001.20,0000.88,0000.70
2024-04-01 21:06:00,SystemResetWarning,0821.0,5.00,000.00,021.6,021.0,000.0,030.1,023.4,18.5,0000.0,0001.13,0000.86,0000.71
2024-04-01 21:07:00,SystemResetWarning,0821.1,5.00,000.00,021.6,020.9,000.0,030.1,023.4,18.4,0000.0,0001.15,0000.87,0000.71
2024-04-01 21:08:00,SystemResetWarning,0821.2,4.99,000.00,021.6,020.9,000.0,030.1,023.4,18.3,0000.0,0001.20,0000.86,0000.69
2024-04-01 21:09:00,SystemResetWarning,0821.3,4.99,000.00,021.6,020.9,000.0,030.1,023.4,18.1,0000.0,0001.09,0000.80,0000.67
2024-04-01 21:10:00,SystemResetWarning,0821.3,5.00,000.00,021.6,020.9,000.0,030.1,023.4,18.3,0000.0,0001.06,0000.77,0000.65
2024-04-01 21:11:00,SystemResetWarning,0821.3,5.01,000.00,021.6,020.9,000.0,030.1,023.4,17.7,0000.0,0001.07,0000.76,0000.64
2024-04-01 21:12:00,SystemResetWarning,0821.3,5.01,000.00,021.6,020.9,000.0,030.1,023.4,17.5,0000.0,0001.06,0000.76,0000.64
2024-04-01 21:13:00,SystemResetWarning,0821.3,5.00,000.00,021.6,020.9,000.0,030.1,023.4,17.8,0000.0,0001.13,0000.79,0000.65
2024-04-01 21:14:00,SystemResetWarning,0821.3,4.99,000.00,021.6,020.9,000.0,030.1,023.4,17.3,0000.0,0001.17,0000.82,0000.66
2024-04-01 21:15:00,SystemResetWarning,0821.3,4.99,000.00,021.6,020.9,000.0,030.1,023.4,16.8,0000.0,0001.21,0000.84,0000.68
2024-04-01 21:16:00,SystemResetWarning,0821.3,5.01,000.00,021.6,020.9,000.0,030.1,023.4,17.1,0000.0,0001.19,0000.84,0000.69
2024-04-01 21:17:00,SystemResetWarning,0821.3,5.00,000.00,021.6,020.9,000.0,030.1,023.4,17.0,0000.0,0001.18,0000.83,0000.69
2024-04-01 21:18:00,SystemResetWarning,0821.3,5.00,000.00,021.6,020.9,000.0,030.1,023.4,17.1,0000.0,0001.24,0000.86,0000.69
2024-04-01 21:19:00,SystemResetWarning,0821.2,5.00,000.00,021.6,020.9,000.0,030.1,023.4,17.2,0000.0,0001.65,0000.88,0000.70
2024-04-01 21:20:00,SystemResetWarning,0821.2,5.00,000.00,021.6,020.9,000.0,030.1,023.4,17.0,0000.0,0001.64,0000.88,0000.70
2024-04-01 21:21:00,SystemResetWarning,0821.2,5.00,000.00,021.6,020.9,000.0,030.1,023.4,17.1,0000.0,0001.66,0000.89,0000.71
2024-04-01 21:22:00,SystemResetWarning,0821.2,5.00,000.00,021.6,020.9,000.0,030.1,023.4,17.1,0000.0,0001.63,0000.89,0000.72
2024-04-01 21:23:00,SystemResetWarning,0821.2,5.00,000.00,021.6,020.9,000.0,030.1,023.4,17.0,0000.0,0001.72,0000.92,0000.73
2024-04-01 21:24:00,SystemResetWarning,0821.1,5.00,000.00,021.6,020.9,000.0,030.1,023.4,16.6,0000.0,0001.81,0000.95,0000.74
2024-04-01 21:25:00,SystemResetWarning,0821.2,4.99,000.00,021.6,020.9,000.0,030.1,023.4,16.4,0000.0,0001.76,0000.92,0000.74
2024-04-01 21:26:00,SystemResetWarning,0821.2,5.00,000.00,021.6,020.9,000.0,030.1,023.4,16.9,0000.0,0001.73,0000.91,0000.74
2024-04-01 21:27:00,SystemResetWarning,0821.2,5.00,000.00,021.6,020.9,000.0,030.1,023.4,17.5,0000.0,0001.72,0000.89,0000.72
2024-04-01 21:28:00,SystemResetWarning,0821.2,5.00,000.00,021.6,020.9,000.0,030.1,023.4,18.4,0000.0,0001.72,0000.89,0000.71
2024-04-01 21:29:00,SystemResetWarning,0821.2,5.01,000.00,021.6,020.8,000.0,030.1,023.4,18.5,0000.0,0001.68,0000.86,0000.71
2024-04-01 21:30:00,SystemResetWarning,0821.2,5.00,000.00,021.6,020.8,000.0,030.1,023.3,18.4,0000.0,0001.26,0000.81,0000.69
2024-04-01 21:31:00,SystemResetWarning,0821.2,5.00,000.00,021.6,020.8,000.0,030.1,023.3,18.3,0000.0,0001.29,0000.84,0000.68
2024-04-01 21:32:00,SystemResetWarning,0821.2,4.99,000.00,021.6,020.8,000.0,030.1,023.3,17.5,0000.0,0001.32,0000.86,0000.69
2024-04-01 21:33:00,SystemResetWarning,0821.2,4.99,000.00,021.6,020.7,000.0,030.1,023.3,17.3,0000.0,0001.35,0000.87,0000.68
2024-04-01 21:34:00,SystemResetWarning,0821.2,5.00,000.00,021.5,020.7,000.0,030.1,023.3,17.1,0000.0,0001.39,0000.88,0000.67
2024-04-01 21:35:00,SystemResetWarning,0821.2,5.01,000.00,021.5,020.7,000.0,030.1,023.3,17.1,0000.0,0001.27,0000.85,0000.68
2024-04-01 21:36:00,SystemResetWarning,0821.2,5.01,000.00,021.5,020.8,000.0,030.1,023.3,17.6,0000.0,0001.30,0000.87,0000.67
2024-04-01 21:37:00,SystemResetWarning,0821.2,4.99,000.00,021.5,020.8,000.0,030.1,023.4,17.9,0000.0,0001.33,0000.88,0000.67
2024-04-01 21:38:00,SystemResetWarning,0821.2,4.99,000.00,021.5,020.8,000.0,030.1,023.3,17.4,0000.0,0001.34,0000.89,0000.67
2024-04-01 21:39:00,SystemResetWarning,0821.2,5.00,000.00,021.5,020.7,000.0,030.1,023.3,17.5,0000.0,0001.40,0000.92,0000.68
2024-04-01 21:40:00,SystemResetWarning,0821.3,5.02,000.00,021.5,020.7,000.0,030.1,023.3,17.8,0000.0,0001.41,0000.92,0000.68
2024-04-01 21:41:00,SystemResetWarning,0821.3,4.99,000.00,021.5,020.7,000.0,030.1,023.3,17.9,0000.0,0001.45,0000.94,0000.68
2024-04-01 21:42:00,SystemResetWarning,0821.3,4.99,000.00,021.5,020.7,000.0,030.1,023.3,17.5,0000.0,0001.42,0000.93,0000.68
2024-04-01 21:43:00,SystemResetWarning,0821.2,5.00,000.00,021.5,020.7,000.0,030.1,023.3,17.6,0000.0,0001.40,0000.92,0000.68
2024-04-01 21:44:00,SystemResetWarning,0821.2,5.02,000.00,021.5,020.6,000.0,030.1,023.3,17.3,0000.0,0001.41,0000.92,0000.67
2024-04-01 21:45:00,SystemResetWarning,0821.2,5.00,000.00,021.5,020.7,000.0,030.1,023.3,16.7,0000.0,0001.32,0000.88,0000.66
2024-04-01 21:46:00,SystemResetWarning,0821.2,5.00,000.00,021.5,020.7,000.0,030.1,023.3,16.9,0000.0,0001.27,0000.86,0000.65
2024-04-01 21:47:00,SystemResetWarning,0821.2,4.99,000.00,021.5,020.7,000.0,030.1,023.3,17.3,0000.0,0001.21,0000.83,0000.64
2024-04-01 21:48:00,SystemResetWarning,0821.3,5.00,000.00,021.5,020.7,000.0,030.1,023.3,17.4,0000.0,0001.47,0000.81,0000.63
2024-04-01 21:49:00,SystemResetWarning,0821.3,5.00,000.00,021.5,020.8,000.0,030.1,023.3,17.3,0000.0,0002.18,0000.80,0000.63
2024-04-01 21:50:00,SystemResetWarning,0821.4,5.01,000.00,021.5,020.8,000.0,030.1,023.3,16.9,0000.0,0002.17,0000.78,0000.63
2024-04-01 21:51:00,SystemResetWarning,0821.3,5.01,000.00,021.5,020.8,000.0,030.1,023.3,17.0,0000.0,0002.16,0000.78,0000.63
2024-04-01 21:52:00,SystemResetWarning,0821.4,5.00,000.00,021.5,020.8,000.0,030.1,023.3,17.7,0000.0,0002.22,0000.82,0000.65
2024-04-01 21:53:00,SystemResetWarning,0821.4,5.00,000.00,021.5,020.9,000.0,030.1,023.4,17.4,0000.0,0002.22,0000.83,0000.66
2024-04-01 21:54:00,SystemResetWarning,0821.3,5.00,000.00,021.5,020.9,000.0,030.1,023.4,17.2,0000.0,0002.21,0000.83,0000.67
2024-04-01 21:55:00,SystemResetWarning,0821.3,5.00,000.00,021.5,020.9,000.0,030.1,023.4,17.4,0000.0,0002.18,0000.81,0000.66
2024-04-01 21:56:00,SystemResetWarning,0821.4,4.99,000.00,021.6,020.9,000.0,030.1,023.4,17.2,0000.0,0002.14,0000.80,0000.66
2024-04-01 21:57:00,SystemResetWarning,0821.4,5.00,000.00,021.6,020.9,000.0,030.1,023.4,17.1,0000.0,0002.19,0000.80,0000.66
2024-04-01 21:58:00,SystemResetWarning,0821.3,5.01,000.00,021.6,021.0,000.0,030.1,023.4,17.1,0000.0,0002.30,0000.81,0000.66
2024-04-01 21:59:00,SystemResetWarning,0821.3,5.01,000.00,021.6,021.0,000.0,030.1,023.4,18.0,0000.0,0002.37,0000.84,0000.67
